Fairmont, WV (26554)

12:03 AM EST on February 14, 2016 (GMT -0500)
N8TJD's WX Station. Stony Rd/Pinchgut Hollow. | | Change Station
CLOSE
Current Station
Personal Weather Station
Location: Fairmont, WV
Elevation: 1283 ft
Nearby Weather Stations
Active Advisory: Wind Chill Advisory Active Notice: Local Storm Report

Elev 1283 ft 39.46 °N, 80.12 °W | Updated 18 seconds ago

Clear
Clear
3.2 °F
Feels Like 3 °F
N
0.0
Wind Variable Wind from South
Gusts 0.0 mph

Today
High -- | Low -- °F
--% Chance of Precip.
Yesterday
High -- | Low -- °F
Precip. -- in
Pressure 30.49 in
Visibility 10.0 miles
Clouds Clear
Windchill 3 °F
Dew Point -25 °F
Humidity 24%
Rainfall 0.00 in
Snow Depth Not available.
7:14 AM 5:55 PM
Waxing Crescent, 38% visible
METAR KCKB 140453Z 21004KT 10SM CLR M14/M21 A3043 RMK AO2 SLP323 T11391206 410391144
Pressure 30.49 in
Visibility 10.0 miles
Clouds Clear
Windchill 3 °F
Dew Point -25 °F
Humidity 24%
Rainfall 0.00 in
Snow Depth Not available.
7:14 AM 5:55 PM
Waxing Crescent, 38% visible
METAR KCKB 140453Z 21004KT 10SM CLR M14/M21 A3043 RMK AO2 SLP323 T11391206 410391144

10-Day Weather Forecast

Almanac

Astronomy

Feb. 14, 2016 Rise Set
Actual Time
Civil Twilight
Nautical Twilight
Astronomical Twilight
Moon
Length of Visible Light
Length of Day
Tomorrow will be .
, % of the Moon is Illuminated

Today's Extremes

State Highs State Lows

Community

WunderPhotos

Upload Photos

1,892,748 photos uploaded!

WunderBlog® & News

Nearby

Air Quality

  Air Quality AQ Index Pollutant
Not available.

Snow Depth

Station Depth Elevation

Earthquake Activity

City Distance Mag. Time & Date
Minimum magnitude displayed is 2.5.

Coastal Water Temperatures

Place Temperature

Stations

Nearby Weather Stations

Station Location Temp. Windchill Dew Point Humidity Wind Precip. Elev Updated Type
                   

Watches & Warnings

Wind Chill Advisory
Issued: 10:26 PM EST Feb. 13, 2016 – National Weather Service

... Wind Chill Advisory remains in effect until 9 am EST Sunday...

* wind chill... as low as 14 below. Temperature 4 below to 12
above zero... and west wind 10 to 15 mph.

* Impact... frost bite and hypothermia are likely if precautions
are not taken.

Precautionary/preparedness actions...

A Wind Chill Advisory means that very cold air and strong wind
will combine to generate low wind chill indices. Make sure you
dress appropriately.